EHI
0 0 0 0 0 0 0 0 0 0 0 0 0 0 0 0 0 0 0 0 0 0 0 0 0 0 0 0 0 0 0 0 0 0 0 0 0 0 0 0 0 0 0
0 0 0 0 0 0 0 0 0 0 0 0 0 0 0 0 0 0 0 0 0 0 0 0 0 0 0 0 0 0 0 0 0 0 0 0 0 0 0 0 0 0 0
0 0 0 0 0 0 0 0 0 0 0 0 0 0 0 0 0 0 0 0 0 0 0 0 0 0 0 0 0 0 0 0 0 0 0 0 0 0 0 0 0 0 0
0 0 0 0 0 0 0 0 0 0 0 0 0 0 0 0 0 0 0 0 0 0 0 0 0 0 0 0 0 0 0 0 0 0 0 0 0 0 0 0 0 0 0
0 0 0 0 0 0 0 0 0 0 0 0 0 0 0 0 0 0 0 0 0 0 0 0 0 0 0 0 0 0 0 0 0 0 0 0 0 0 0 0 0 0 0
0 0 0 0 0 0 0 0 0 0 0 0 0 0 0 0 0 0 0 0 0 0 0 0 0 0 0 0 0 0 0 0 0 0 0 0 0 0 0 0 0 0 0
0 0 0 0 0 0 0 0 0 0 0 0 0 0 0 0 0 0 0 0 0 0 0 0 0 0 0 0 0 0 0 0 0 0 0 0 0 0 0 0 0 0 0
0 0 0 0 0 0 0 0 0 0 0 0 0 0 0 0 0 0 0 0 0 0 0 0 0 0 0 0 0 0 0 0 0 0 0 0 0 0 0 0 0 0 0
0 0 0 0 0 0 0 0 0 0 0 0 0 0 0 0 0 0 0 0 0 0 0 0 0 0 0 0 0 0 0 0 0 0 0 0 0 0 0 0 0 0 0
0 0 0 0 0 0 0 0 0 0 0 0 0 0 0 0 0 0 0 0 0 0 0 0 0 0 0 0 0 0 0 0 0 0 0 0 0 0 0 0 0 0 0
0 0 0 0 0 0 0 0 0 0 0 0 0 0 0 0 0 0 0 0 0 0 0 0 0 0 0 0 0 0 0 0 0 0 0 0 0 0 0 0 0 0 0
0 0 0 0 0 0 0 0 0 0 0 0 0 0 0 0 0 0 0 0 0 0 0 0 0 0 0 0 0 0 0 0 0 0 0 0 0 0 0 0 0 0 0
0 0 0 0 0 0 0 0 0 0 0 0 0 0 0 0 0 0 0 0 0 0 0 0 0 0 0 0 0 0 0 0 0 0 0 0 0 0 0 0 0 0 0
0 0 0 0 0 0 0 0 0 0 0 0 0 0 0 0 0 0 0 0 0 0 0 0 0 0 0 0 0 0 0 0 0 0 0 0 0 0 0 0 0 0 0
0 0 0 0 0 0 0 0 0 0 0 0 0 0 0 0 0 0 0 0 0 0 0 0 0 0 0 0 0 0 0 0 0 0 0 0 0 0 0 0 0 0 0
0 0 0 0 0 0 0 0 0 0 0 0 0 0 0 0 0 0 0 0 0 0 0 0 0 0 0 0 0 0 0 0 0 0 0 0 0 0 0 0 0 0 0
0 0 0 0 0 0 0 0 0 0 0 0 0 0 0 0 0 0 0 0 0 0 0 0 0 0 0 0 0 0 0 0 0 0 0 0 0 0 0 0 0 0 0
0 0 0 0 0 0 0 0 0 0 0 0 0 0 0 0 0 0 0 0 0 0 0 0 0 0 0 0 0 0 0 0 0 0 0 0 0 0 0 0 0 0 0
0 0 0 0 0 0 0 0 0 0 0 0 0 0 0 0 0 0 0 0 0 0 0 0 0 0 0 0 0 0 0 0 0 0 0 0 0 0 0 0 0 0 0
0 0 0 0 0 0 0 0 0 0 0 0 0 0 0 0 0 0 0 0 0 0 0 0 0 0 0 0 0 0 0 0 0 0 0 0 0 0 0 0 0 0 0
0 0 0 0 0 0 0 0 0 0 0 0 0 0 0 0 0 0 0 0 0 0 0 0 0 0 0 0 0 0 0 0 0 0 0 0 0 0 0 0 0 0 0
0 0 0 0 0 0 0 0 0 0 0 0 0 0 0 0 0 0 0 0 0 0 0 0 0 0 0 0 0 0 0 0 0 0 0 0 0 0 0 0 0 0 0
0 0 0 0 0 0 0 0 0 0 0 0 0 0 0 0 0 0 0 0 0 0 0 0 0 0 0 0 0 0 0 0 0 0 0 0 0 0 0 0 0 0 0
0 0 0 0 0 0 0 0 0 0 0 0 0 0 0 0 0 0 0 0 0 0 0 0 0 0 0 0 0 0 0 0 0 0 0 0 0 0 0 0 0 0 0
0 0 0 0 0 0 0 0 0 0 0 0 0 0 0 0 0 0 0 0 0 0 0 0 0 0 0 0 0 0 0 0 0 0 0 0 0 0 0 0 0 0 0
0 0 0 0 0 0 0 0 0 0 0 0 0 0 0 0 0 0 0 0 0 0 0 0 0 0 0 0 0 0 0 0 0 0 0 0 0 0 0 0 0 0 0
Wind_Speed
5 5 5 5 5 5 5 5 5 4 4 4 4 4 4 4 4 4 3 4 4 3 3 3 3 2 2 2 2 2 2 3 5 5 4 4 6 7 6 7 7 8 7
5 5 6 5 5 6 5 5 5 4 4 4 3 4 4 4 4 4 4 4 4 4 3 3 3 2 2 2 2 2 2 3 5 6 5 5 6 7 7 8 7 6 7
5 5 6 5 5 5 5 5 4 4 3 3 3 4 4 4 4 4 4 4 4 4 4 4 4 3 3 2 2 2 2 3 4 5 5 4 5 5 7 7 8 7 7
6 6 6 6 5 5 4 4 4 4 4 3 3 3 3 3 3 3 3 3 3 3 3 3 3 4 3 3 2 3 3 3 3 4 4 4 4 5 5 6 7 6 7
6 7 7 5 5 5 4 4 4 4 3 3 3 3 3 3 3 3 3 3 3 3 2 2 2 2 2 2 2 3 3 3 3 3 4 4 4 4 5 5 7 7 7
7 7 6 6 6 5 5 4 4 4 4 4 4 4 3 3 4 5 4 3 3 3 3 2 2 3 3 3 3 3 4 4 4 3 4 4 5 5 6 5 6 7 7
7 7 6 6 6 6 5 5 5 5 5 4 4 4 4 4 5 5 5 4 4 3 3 3 2 2 3 2 3 3 3 4 5 4 5 6 6 6 6 7 7 7 8
7 7 7 6 7 6 6 6 5 5 5 5 4 4 4 4 5 6 5 4 3 3 3 3 3 3 2 2 2 3 3 3 3 4 5 5 5 6 6 7 8 9 9
8 8 7 7 7 7 7 7 6 5 5 5 4 4 5 4 6 6 5 4 3 3 3 3 3 3 3 3 3 3 3 3 2 4 5 5 6 7 7 5 6 6 7
9 8 7 7 7 8 7 6 5 5 5 5 4 5 5 4 5 6 6 3 3 3 2 3 4 4 3 4 3 3 4 4 3 3 4 4 5 5 6 5 5 5 6
7 7 7 7 8 7 6 5 5 5 5 5 5 4 4 5 5 6 7 4 4 3 3 2 2 4 5 4 4 4 4 4 3 3 3 3 3 4 4 4 5 5 6
6 7 7 7 6 6 6 6 6 6 6 5 5 4 4 4 5 6 7 7 5 4 3 3 2 4 4 4 3 3 3 3 2 2 3 3 3 4 4 5 6 6 6
7 8 7 7 7 6 7 7 6 6 5 5 5 4 4 4 4 7 7 8 7 4 3 3 4 4 3 3 3 3 3 2 2 2 3 3 4 4 5 5 5 6 7
8 8 7 7 7 7 6 6 6 6 6 6 6 5 4 4 4 4 4 5 6 4 3 3 4 4 3 3 2 2 2 2 2 3 3 3 3 3 4 4 5 5 5
8 7 7 7 7 7 7 6 7 7 7 7 6 6 5 5 5 7 5 4 4 3 3 2 2 3 2 2 2 1 1 1 2 2 3 3 3 3 4 4 4 4 5
7 7 6 6 6 6 6 5 6 6 7 8 7 6 5 5 6 8 8 7 6 7 4 3 3 3 3 3 3 2 2 2 2 2 3 3 3 4 4 4 4 4 5
8 7 6 6 6 6 6 6 6 6 8 10 10 10 9 8 9 9 8 8 8 8 5 4 4 4 4 3 3 3 2 2 2 2 3 3 3 4 4 4 4 4 5
8 8 7 6 6 6 7 7 6 6 6 5 8 12 11 11 10 9 9 7 6 6 4 4 4 4 4 3 3 3 2 2 2 2 3 3 3 3 4 4 4 5 5
7 6 6 6 6 6 6 6 6 7 6 5 5 7 10 10 10 10 10 6 6 5 5 5 4 4 4 3 3 3 3 3 3 3 3 3 3 3 4 4 4 5 5
7 8 7 6 6 6 6 7 6 6 6 6 6 6 7 7 6 7 7 6 5 5 5 5 4 4 4 4 3 3 3 3 3 3 3 3 3 3 4 5 4 4 4
5 6 8 6 6 7 7 7 7 7 7 6 6 7 10 7 7 7 6 6 6 6 5 5 4 4 4 4 4 4 4 3 3 3 3 3 3 3 4 4 4 4 4
5 5 6 6 6 6 7 6 6 6 7 7 5 6 12 7 6 6 6 6 6 5 5 5 5 4 4 4 4 4 4 4 3 3 3 3 3 3 3 3 4 4 4
5 6 6 6 6 7 7 6 6 6 6 6 6 6 7 7 6 6 6 6 5 5 5 5 5 4 4 4 4 4 5 4 4 3 3 3 3 3 3 3 4 4 4
6 6 6 6 6 6 6 6 6 6 6 6 6 6 6 7 7 7 6 5 5 5 5 5 5 6 6 5 4 4 4 4 3 3 4 4 3 3 3 3 4 4 4
6 6 6 6 6 6 6 6 6 6 6 6 6 6 6 6 6 6 6 5 6 6 6 5 4 5 7 6 5 4 5 6 5 3 3 3 4 4 3 4 3 3 3
6 6 6 6 6 6 6 6 7 7 7 6 6 6 6 6 6 6 5 5 5 5 5 5 6 6 6 6 6 6 7 7 6 6 3 3 3 3 3 3 4 3 3
Wind_Direction
241 242 242 244 245 245 244 243 240 237 234 232 227 228 224 219 215 211 208 202 203 202 204 209 216 221 220 225 234 240 246 248 259 275 281 287 287 289 292 289 287 287 285
243 244 245 243 241 242 242 241 236 233 228 227 224 224 222 221 219 213 206 205 205 202 203 206 215 213 220 226 230 237 248 255 259 270 279 282 286 292 294 293 292 292 290
240 242 242 237 235 241 241 235 230 228 224 220 219 219 219 219 219 217 211 208 209 205 202 204 209 207 216 225 236 245 255 263 261 263 274 281 287 292 296 294 293 292 293
234 236 237 233 231 232 234 228 224 222 220 220 220 223 224 221 218 216 208 204 206 207 205 206 211 212 217 222 235 247 256 261 259 261 271 280 286 295 297 298 298 300 299
229 231 231 227 225 224 224 223 216 215 219 218 216 216 216 216 210 203 198 199 197 197 194 202 207 208 219 228 234 241 247 252 258 263 270 279 282 292 294 298 297 302 296
229 229 227 220 216 218 218 216 214 210 208 207 211 207 206 209 192 198 200 196 195 193 191 196 192 189 196 215 237 254 263 260 264 268 274 275 284 290 294 294 299 301 297
230 229 224 219 216 216 213 212 214 212 206 208 212 209 209 202 195 199 196 192 190 192 194 197 196 194 201 215 226 245 262 270 271 273 271 276 285 290 292 293 292 293 289
228 225 219 215 215 213 210 211 214 212 208 208 210 211 212 201 190 190 187 196 198 199 203 208 212 213 208 230 250 262 270 274 276 271 272 283 290 294 290 288 291 290 284
228 224 217 212 212 209 210 210 208 206 206 205 203 206 209 203 189 188 190 194 198 203 204 211 219 228 207 221 245 260 273 280 279 278 287 289 296 299 299 292 293 295 293
228 225 218 211 211 211 210 207 203 203 205 200 202 206 210 212 190 191 197 201 201 202 201 206 213 227 226 225 240 249 262 276 285 287 284 284 287 290 292 283 285 287 293
229 222 217 212 212 211 206 201 198 197 198 201 205 206 210 210 200 200 205 206 201 204 207 210 207 211 233 238 248 253 264 285 287 289 291 297 302 303 300 293 285 278 277
223 220 217 213 208 203 199 195 195 194 197 202 203 207 208 205 209 204 207 212 208 209 213 216 214 210 231 240 248 252 269 282 280 288 291 295 300 301 301 299 292 284 274
219 219 217 211 207 201 199 194 192 195 200 203 204 207 204 200 199 203 207 206 207 216 215 208 213 217 234 241 234 236 251 259 266 273 280 288 293 296 300 298 294 289 283
221 220 213 210 206 202 200 197 197 198 201 204 206 207 204 200 198 194 197 197 197 206 206 190 197 210 222 225 220 227 251 265 270 271 280 289 294 296 297 302 303 305 300
221 219 212 209 206 202 204 204 204 209 209 204 204 202 199 205 200 192 191 194 191 189 180 188 197 203 207 214 229 241 253 264 273 278 279 283 291 296 300 304 302 302 298
217 215 211 205 202 202 201 205 209 215 210 214 214 205 205 203 183 190 197 198 191 181 183 198 204 211 218 222 230 237 244 256 270 278 279 283 289 293 297 299 297 294 297
218 214 210 206 202 201 200 200 199 203 210 213 211 209 209 197 193 195 197 197 196 191 202 208 212 216 220 223 229 234 246 254 262 266 274 281 287 291 293 296 298 296 296
222 216 211 209 204 202 202 202 199 195 195 201 208 209 206 201 197 196 194 192 201 203 212 213 215 216 216 220 226 234 243 248 252 262 269 276 283 287 291 294 295 298 300
219 215 209 208 205 203 203 201 201 201 202 197 188 194 198 198 197 197 192 203 207 209 211 214 215 215 216 218 222 227 232 240 250 256 263 272 279 283 287 292 293 296 296
220 214 207 206 203 201 199 200 201 200 200 199 198 191 179 182 193 194 198 206 210 212 211 212 212 211 211 214 216 220 229 237 243 249 257 266 273 276 283 289 292 293 292
216 208 201 206 206 203 201 202 201 199 201 204 204 194 186 190 195 198 199 203 209 211 209 208 208 207 208 209 214 219 226 235 239 245 253 263 270 276 281 286 292 290 292
211 206 202 208 207 205 204 202 201 202 203 205 200 192 195 198 198 201 203 205 208 209 206 204 206 206 204 205 209 215 223 230 235 240 249 257 264 271 277 283 292 297 296
209 207 205 207 206 204 203 202 200 202 203 203 197 191 194 200 202 205 206 205 203 203 200 201 204 205 205 206 209 212 219 227 231 234 242 250 257 266 272 279 289 293 297
206 207 206 205 204 203 202 202 200 200 202 202 200 198 199 201 204 205 204 201 200 200 198 199 203 206 204 205 208 211 218 223 226 229 237 248 258 265 269 274 280 287 293
204 205 205 205 204 204 203 202 202 201 200 201 201 201 201 202 203 203 201 197 197 200 199 199 201 204 205 208 211 213 216 221 229 231 233 240 249 256 263 270 275 283 291
207 207 207 205 204 204 203 203 203 202 201 199 200 201 201 201 202 200 197 195 196 197 197 200 202 203 204 207 210 212 217 222 224 231 232 237 243 251 257 263 272 278 283